Location: Newark
(36.0797°N, 3.9744°E)
Time: 06:09:59
(UTC+00:00)

Transit 2A Rocket - All Passes

Search period start: 07 December 2019 00:00
Search period end: 17 December 2019 00:00
Orbit: 594 x 909 km, 66.7° (Epoch: 05 December)

Date Brightness Start Highest point End Pass type
(mag) Time Alt. Az. Time Alt. Az. Time Alt. Az.
07 Dec - 02:05:32 10° NNW 02:10:03 77° ENE 02:14:56 10° SSE night (unlit)
07 Dec - 16:37:46 10° SSW 16:42:28 74° WNW 16:46:53 10° NNE daylight
08 Dec - 01:23:14 10° NNW 01:27:29 40° ENE 01:32:01 10° SE night (unlit)
08 Dec - 03:06:34 10° WNW 03:09:46 18° WSW 03:13:06 10° SSW night (unlit)
08 Dec - 15:55:22 10° SSW 15:59:59 56° ESE 16:04:19 10° NE daylight
08 Dec - 17:40:18 10° W 17:42:47 14° NW 17:45:12 10° NNW visible
09 Dec - 00:41:17 10° N 00:44:50 22° NE 00:48:34 10° ESE night (unlit)
09 Dec - 02:23:13 10° NW 02:27:23 35° WSW 02:31:50 10° S night (unlit)
09 Dec - 15:13:34 10° S 15:17:34 28° ESE 15:21:22 10° NE daylight
09 Dec - 16:56:12 10° WSW 17:00:01 25° NW 17:03:42 10° N visible
10 Dec - 00:00:01 10° NNE 00:02:03 13° NE 00:04:08 10° ENE night (unlit)
10 Dec - 01:40:25 10° NNW 01:44:56 69° WSW 01:49:50 10° SSE night (unlit)
10 Dec - 14:32:44 10° SE 14:35:14 14° ESE 14:37:40 10° ENE daylight
10 Dec - 16:12:54 10° SW 16:17:23 47° WNW 16:21:38 10° NNE daylight
11 Dec - 00:57:56 10° NNW 01:02:26 61° ENE 01:07:17 10° SE night (unlit)
11 Dec - 02:42:46 10° W 02:44:31 12° WSW 02:46:20 10° SW night (unlit)
11 Dec - 15:30:10 10° SSW 15:34:51 88° ESE 15:39:16 10° NNE daylight
12 Dec - 00:15:45 10° N 00:19:51 32° ENE 00:24:12 10° ESE night (unlit)
12 Dec - 01:58:32 10° WNW 02:02:12 23° WSW 02:06:05 10° SSW night (unlit)
12 Dec - 14:47:57 10° S 14:52:23 43° ESE 14:56:35 10° NE daylight
12 Dec - 16:32:03 10° W 16:35:04 17° NW 16:38:00 10° N daylight
12 Dec - 23:33:57 10° N 23:37:09 19° NE 23:40:29 10° E night (unlit)
13 Dec - 01:15:26 10° NW 01:19:48 44° WSW 01:24:31 10° S night (unlit)
13 Dec - 14:06:25 10° SSE 14:10:01 22° ESE 14:13:27 10° ENE daylight
13 Dec - 15:48:17 10° WSW 15:52:21 31° WNW 15:56:16 10° N daylight
13 Dec - 22:53:25 10° NE 22:54:18 10° NE 22:55:13 10° ENE night (unlit)
14 Dec - 00:32:45 10° NNW 00:37:20 87° WSW 00:42:19 10° SSE night (unlit)
14 Dec - 13:26:26 10° ESE 13:27:42 11° ESE 13:28:57 10° E daylight
14 Dec - 15:05:11 10° SW 15:09:45 59° WNW 15:14:05 10° NNE daylight
14 Dec - 23:50:23 10° NNW 23:54:48 49° ENE 23:59:35 10° SE night (unlit)
15 Dec - 01:34:15 10° WNW 01:37:00 15° WSW 01:39:51 10° SW night (unlit)
15 Dec - 14:22:37 10° SSW 14:27:15 69° ESE 14:31:37 10° NNE daylight
15 Dec - 16:08:31 10° WNW 16:10:10 12° NW 16:11:47 10° NNW daylight
15 Dec - 23:08:18 10° N 23:12:11 27° NE 23:16:18 10° ESE night (unlit)
16 Dec - 00:50:38 10° NW 00:54:39 29° WSW 00:58:57 10° S night (unlit)
16 Dec - 13:40:37 10° S 13:44:49 34° ESE 13:48:48 10° NE daylight
16 Dec - 15:23:55 10° WSW 15:27:21 21° NW 15:30:42 10° N daylight
16 Dec - 22:26:42 10° NNE 22:29:27 15° NE 22:32:17 10° E night (unlit)
